Location: Starlight Observatory
(38.4029°N, 85.8936°W)
Time: 18:23:30
(UTC-04:00)

Daily predictions for brighter satellites

Satellite Brightness Start Highest point End
(mag) Time Altitude Azimuth Time Altitude Azimuth Time Altitude Azimuth
CZ-4C R/B 3.5 19:26:52 10° SSE 19:30:06 17° ESE 19:33:32 10° ENE
FALCON 9 R/B 3.2 19:30:47 10° SW 19:31:54 13° SSW 19:33:11 10° SSE
SKYMED 2 3.8 19:27:58 10° NNE 19:32:12 50° E 19:36:25 10° S
EO 1 Del DPAF 3.2 19:29:06 10° NNE 19:32:56 65° ESE 19:36:44 10° S
CORIOLIS 4.4 19:28:53 10° S 19:34:15 78° WSW 19:39:41 10° NNW
Meteor 1-11 4.2 19:30:09 10° N 19:35:57 74° E 19:41:39 10° SSE
FENGYUN 3A 4.3 19:31:29 10° SE 19:36:15 33° ENE 19:41:02 10° N
Cosmos 1743 Rocket 3.6 19:32:14 10° N 19:36:33 57° E 19:40:53 10° SSE
Delta 2 Rocket 3.6 19:34:08 10° WSW 19:37:49 46° S 19:41:01 11° E
Cosmos 2322 4.3 19:32:37 10° N 19:37:53 36° ENE 19:43:05 10° SE
RESURS DK-1 3.0 19:37:48 10° N 19:41:37 34° ENE 19:45:23 10° SE
Lacrosse 5 rocket 4.1 19:41:16 10° NW 19:42:48 12° NNW 19:44:19 10° N
Cosmos 1842 Rocket 3.5 19:38:26 10° S 19:42:52 68° E 19:47:19 10° NNE
Cosmos 2221 3.3 19:41:48 10° SSE 19:45:32 29° E 19:49:19 10° NNE
Cosmos 2058 3.0 19:42:45 10° N 19:46:52 54° E 19:50:55 10° SSE
ALOS 2.7 19:42:33 10° SE 19:46:52 39° ENE 19:51:13 10° N
MONITOR-E 4.0 19:49:14 10° SSE 19:52:18 77° ENE 19:55:23 10° N
Atlas Centaur 2 3.0 19:49:00 10° WSW 19:53:09 33° S 19:58:05 11° ESE
ERS-2 3.6 19:49:40 10° S 19:53:11 42° W 19:56:43 10° NNW
ASTRO E2 4.0 19:51:25 10° WSW 19:54:55 29° S 19:57:53 13° ESE
Cosmos 921 Rocket 3.4 19:51:33 10° N 19:55:47 41° ENE 19:59:55 10° SE
Cosmos 2219 Rocket 3.6 19:52:44 10° N 19:56:33 18° NE 19:58:26 16° ENE
Cosmos 1500 Rocket 3.4 19:53:51 10° N 19:58:13 76° E 20:02:30 10° SSE
Cosmos 1703 3.1 19:54:40 10° N 19:58:38 81° E 20:02:31 10° S
SPOT 3 Rocket 3.5 19:59:05 10° SSE 20:04:16 88° ENE 20:09:31 10° NNW
Cosmos 1726 2.9 20:05:48 10° SSE 20:09:02 29° E 20:12:16 10° NNE
DMSP B5D1-3 4.4 20:04:00 10° NNE 20:09:09 76° ESE 20:14:17 10° S
SL-16 R/B 3.8 20:04:52 10° NW 20:10:03 38° WSW 20:15:13 10° S
Cosmos 1908 3.1 20:08:59 10° S 20:12:53 80° E 20:16:49 10° N
USA 267 3.7 20:09:11 16° ENE 20:14:00 40° SE 20:20:03 10° SSW
Cosmos 468 4.4 20:09:40 10° S 20:14:52 76° ESE 20:20:06 10° NNE
Cosmos 1400 Rocket 3.8 20:11:10 10° NNW 20:15:04 48° W 20:18:53 10° S
Cosmos 2237 4.2 20:09:50 10° NNW 20:15:31 60° ENE 20:21:09 10° SE
CZ-4 R/B 4.2 20:13:32 10° SSW 20:16:54 23° W 20:20:16 10° NW
Cosmos 2098 Rocket 3.3 20:15:07 10° SSE 20:19:09 50° E 20:24:17 10° NNE
COSMO-SKYMED 1 3.8 20:16:06 10° N 20:20:14 44° WNW 20:24:21 10° SW
H-2A R/B 3.1 20:19:22 23° SE 20:21:19 42° ENE 20:25:01 10° N
Cosmos 44 3.0 20:17:31 10° SSW 20:21:50 59° ESE 20:24:23 23° NE
Cosmos 1452 Rocket 3.5 20:19:05 10° NNW 20:24:21 84° WSW 20:29:36 10° SSE
Cosmos 2237 Rocket 3.7 20:23:52 10° N 20:27:16 18° NE 20:27:16 18° NE
Sich 1 3.9 20:25:41 10° NNE 20:28:51 31° NE 20:28:51 31° NE
NOAA 12 4.4 20:25:16 10° S 20:30:32 70° WSW 20:35:51 10° NNW
SL-24 R/B - RUBIN 2 3.8 20:28:54 10° NW 20:33:40 73° WSW 20:37:01 17° SSE
Cosmos 2227 Rocket 4.3 20:30:04 10° SSE 20:30:09 10° SSE 20:30:09 10° SSE
Cosmos 1805 Rocket 3.5 20:32:18 10° N 20:36:39 63° E 20:39:29 21° SSE
FREGAT/IRIS 3.3 20:37:46 42° N 20:37:46 42° N 20:39:53 10° N
Aureole 2 Rocket 4.3 20:34:18 10° N 20:36:10 23° NNE 20:36:10 23° NNE
Cosmos 1821 Rocket 3.9 20:34:37 10° S 20:40:44 82° E 20:47:00 10° N
Cosmos 44 Rocket 3.1 20:36:27 10° SSW 20:41:10 89° NW 20:43:51 26° NNE
Cosmos 1000 Rocket 4.4 20:36:49 10° N 20:43:04 88° ENE 20:49:15 10° S
Cosmos 1666 Rocket 4.3 20:41:11 10° N 20:44:09 36° NNE 20:44:09 36° NNE
Cosmos 1934 Rocket 3.9 20:40:05 10° S 20:46:21 69° E 20:52:42 10° NNE
DELTA 2 R/B (1) 3.5 20:40:57 10° WNW 20:46:33 80° SSW 20:48:17 46° ESE
Cosmos 2239 Rocket 4.4 20:42:26 10° S 20:48:34 86° W 20:54:45 10° N
Centaur AC-112 4.4 20:45:52 10° WSW 20:49:06 15° SSW 20:49:56 14° S
Cosmos 2360 Rocket 3.3 20:46:13 10° NW 20:51:32 43° WSW 20:56:51 10° S
COSMOS 2428 2.6 20:46:06 10° NNW 20:51:49 81° ENE 20:54:29 33° SSE
Cosmos 1633 Rocket 4.4 20:49:27 10° N 20:51:39 27° NNE 20:51:39 27° NNE
Iridium 4 Rocket 4.2 20:48:29 10° SSW 20:53:50 61° W 20:59:36 10° N
Cosmos 2333 Rocket 2.6 20:49:41 10° N 20:54:58 44° NE 20:54:58 44° NE
Cosmos 2219 3.3 20:53:18 10° SSW 20:59:03 79° WNW 21:04:50 10° NNE
BREEZE M DEB (TANK) 4.4 21:06:41 10° NW 21:07:40 15° NNW 21:07:40 15° NNW
Envisat 4.2 21:12:32 29° NNE 21:12:32 29° NNE 21:15:08 10° N
Cosmos 2123 Rocket 3.8 21:05:13 10° N 21:11:29 84° E 21:14:35 32° S
Cosmos 1605 Rocket 3.7 21:08:50 10° S 21:14:56 78° E 21:21:03 10° N
CZ-4C R/B 2.6 21:12:43 10° SW 21:17:48 59° NW 21:20:08 34° NNE
MOS 1-B Rocket 3.7 21:19:11 80° SE 21:19:28 84° ENE 21:25:26 10° NNW
SJ-6B 4.4 21:21:08 31° NW 21:21:08 31° NW 21:23:31 10° NNW
BREEZE M DEB (TANK) 4.4 21:12:03 10° WNW 21:25:31 51° NNE 21:25:47 51° NNE
Resurs 01 Rocket 3.9 21:37:34 17° NNW 21:37:34 17° NNW 21:38:38 10° NNW
Cosmos 2219 Rocket 2.6 21:35:26 10° NNW 21:40:13 58° WNW 21:40:13 58° WNW
Atlas Centaur 2 3.8 21:37:19 10° WSW 21:40:43 24° SSW 21:40:43 24° SSW
Gbstr 26 Del rocket 4.3 21:40:48 10° NW 21:44:51 53° NW 21:44:51 53° NW
USA 267 3.7 21:56:35 55° NNW 21:57:05 56° NW 22:03:25 10° WSW
Cosmos 2237 Rocket 3.9 22:06:38 10° NNW 22:09:07 27° NNW 22:09:07 27° NNW
Cosmos 2333 Rocket 4.5 22:34:35 10° NW 22:37:00 20° WNW 22:37:00 20° WNW
